Simultaneous Nadir Overpasses (SNOs) Predictions

Prediction of SNOs between GOES-17 and METOP-B Satellite Orbit:

Table of predicted SNOs for the next 14.0 days since TLE Epoch: 1/28/2023
Index Date Time (GOES-17) GOES-17 Lat,Lon METOP-B Lat,Lon Distance(km) Time Diff (sec)
1 01/28/2023 05:23:49 -0.01,-118.56 0.10,-118.06 57.25 80
2 01/30/2023 17:19:09 0.01,-115.66 0.41,-117.48 207.31 80
3 01/31/2023 17:01:05 0.01,-114.50 -0.45,-112.43 236.83 80
4 02/02/2023 05:17:18 -0.01,-112.72 -0.93,-116.94 480.26 80
5 02/03/2023 04:56:34 -0.01,-111.56 -0.06,-111.88 36.03 80
6 02/04/2023 04:38:29 -0.02,-110.41 0.81,-106.83 408.16 80
7 02/05/2023 16:54:32 0.02,-108.66 0.61,-111.30 301.10 80
8 02/06/2023 16:36:28 0.02,-107.50 -0.26,-106.24 143.17 80
9 02/09/2023 04:31:56 -0.03,-104.56 -0.28,-105.69 128.95 80
10 02/10/2023 04:13:51 -0.03,-103.41 0.59,-100.64 315.40 80
